This is the latest recevied weather packets stored in our database for station/object VE9LJW. If no packets are shown the sender has not sent any weather packets the latest 10 day(s).
| Time | Temp. | Humidity | Pressure | Rain* | Wind** | Luminosity | Snow |
|---|---|---|---|---|---|---|---|
| 1777462112 | 7.22° C | 98% | 1019.2 hPa | 1.78 mm | - | 89 W/m² | - |
| 1777461808 | 6.67° C | 98% | 1019.3 hPa | 1.78 mm | - | 71 W/m² | - |
| 1777461504 | 6.67° C | 98% | 1019.3 hPa | 1.78 mm | - | 61 W/m² | - |
| 1777461200 | 6.67° C | 98% | 1019.4 hPa | 1.27 mm | - | 59 W/m² | - |
| 1777460896 | 6.67° C | 98% | 1019.4 hPa | 1.27 mm | - | 50 W/m² | - |
| 1777460591 | 7.22° C | 98% | 1019.3 hPa | 1.27 mm | - | 46 W/m² | - |
| 1777460287 | 6.67° C | 98% | 1019.2 hPa | 1.78 mm | - | 48 W/m² | - |
| 1777459985 | 6.67° C | 98% | 1019.3 hPa | 1.78 mm | - | 44 W/m² | - |
| 1777459681 | 6.67° C | 98% | 1019.3 hPa | 1.78 mm | - | 35 W/m² | - |
| 1777459378 | 6.67° C | 98% | 1019.4 hPa | 1.27 mm | - | 31 W/m² | - |
| 1777459076 | 6.67° C | 98% | 1019.3 hPa | 0 mm | - | 24 W/m² | - |
| 1777458773 | 6.67° C | 98% | 1019.2 hPa | 0.51 mm | - | 24 W/m² | - |
| 1777458469 | 6.67° C | 98% | 1019.3 hPa | 1.27 mm | - | 23 W/m² | - |
| 1777458166 | 6.67° C | 98% | 1019.2 hPa | 1.78 mm | - | 17 W/m² | - |
| 1777457861 | 6.67° C | 98% | 1019.4 hPa | 1.78 mm | - | 16 W/m² | - |
| 1777457557 | 6.67° C | 98% | 1019.2 hPa | 3.56 mm | - | 11 W/m² | - |
| 1777457252 | 6.67° C | 98% | 1019.1 hPa | 3.56 mm | - | 5 W/m² | - |
| 1777456948 | 6.67° C | 97% | 1019.2 hPa | 2.29 mm | - | 2 W/m² | - |
| 1777456644 | 6.67° C | 97% | 1019.2 hPa | 1.27 mm | - | 1 W/m² | - |
| 1777456339 | 6.67° C | 97% | 1019.2 hPa | 0 mm | - | 0 W/m² | - |
| 1777456036 | 6.67° C | 96% | 1019 hPa | 0 mm | - | 1 W/m² | - |
| 1777455732 | 6.67° C | 96% | 1019 hPa | 0.51 mm | - | 0 W/m² | - |
| 1777455429 | 6.67° C | 95% | 1018.9 hPa | 3.56 mm | - | 0 W/m² | - |
| 1777455125 | 6.67° C | 94% | 1018.8 hPa | 7.11 mm | - | 0 W/m² | - |
| 1777454823 | 6.67° C | 93% | 1018.9 hPa | 6.1 mm | - | 0 W/m² | - |
* Rain latest hour (hover to see other rain measurements)
** Current wind speed in m/s (hover to see current wind gust speed)